DC1NF-6 Weather Reports


time (UTC)temp
F
wind
direction
speed
knots
gust
knots
rain 1hr
in
rain 24hr
in
rain mn
in
humidity
%
barometer
mb
20260507123614 52 0.0 1.7 0.01 0.28 0.27 94 1013.3
20260507122611 52 0.0 1.7 0.01 0.28 0.27 95 1013.2
20260507121606 51 0.0 1.7 0.02 0.28 0.27 96 1013.0
20260507120602 51 0.0 1.7 0.02 0.28 0.27 95 1013.1
20260507115559 51 0.0 0.0 0.02 0.28 0.27 96 1013.1
20260507114555 51 0.0 0.0 0.01 0.27 0.26 96 1013.1
20260507113551 50 0.0 1.7 0.01 0.27 0.26 96 1013.0
20260507112548 50 0.0 0.0 0.01 0.27 0.26 96 1012.8
20260507111544 51 0.0 0.0 0.00 0.26 0.25 96 1012.8
20260507110540 51 158 0.0 1.7 0.00 0.26 0.25 95 1012.7
20260507105536 52 90 0.0 1.7 0.00 0.26 0.25 95 1012.7
20260507104533 52 0.0 1.7 0.01 0.26 0.25 95 1012.6
20260507103528 51 0.0 1.7 0.01 0.26 0.25 96 1012.6
20260507102526 51 0.0 1.7 0.01 0.26 0.25 96 1012.5
20260507101521 51 0.0 0.0 0.01 0.26 0.25 97 1012.5
20260507100518 51 0.0 0.0 0.01 0.26 0.25 96 1012.3
20260507095615 51 0.0 1.7 0.01 0.26 0.25 96 1012.2
20260507094611 52 0.0 0.0 0.00 0.25 0.24 96 1012.0
20260507093607 52 0.0 1.7 0.00 0.25 0.24 96 1012.0
20260507092604 52 90 0.0 1.7 0.01 0.25 0.24 95 1011.9
20260507091600 52 0.0 0.0 0.01 0.25 0.24 97 1011.8
20260507090556 51 0.0 0.0 0.01 0.25 0.24 97 1011.7
20260507085552 51 0.0 1.7 0.01 0.25 0.24 97 1011.5
20260507084549 51 0.0 0.0 0.01 0.25 0.24 97 1011.4
20260507083545 51 0.0 1.7 0.02 0.25 0.24 97 1011.3
20260507082541 51 135 0.0 1.7 0.01 0.24 0.22 97 1011.1
20260507081538 51 0.0 0.0 0.01 0.24 0.22 97 1011.0
20260507080533 51 0.0 1.7 0.01 0.24 0.22 97 1010.9
20260507075529 51 0.0 0.0 0.01 0.24 0.22 97 1010.9
20260507074525 51 0.0 1.7 0.01 0.24 0.22 97 1010.8
20260507073521 51 0.0 0.0 0.00 0.22 0.21 97 1010.7
20260507072517 51 0.0 0.0 0.00 0.22 0.21 96 1010.5
20260507071613 51 0.0 0.0 0.00 0.22 0.21 97 1010.4
20260507070609 52 0.0 0.0 0.01 0.22 0.21 98 1010.2
20260507065606 51 0.0 1.7 0.01 0.22 0.21 98 1010.2
20260507064602 51 0.0 0.0 0.01 0.22 0.21 98 1010.1
20260507063558 51 0.0 1.7 0.01 0.22 0.21 98 1010.1
20260507062554 51 0.0 1.7 0.02 0.22 0.21 99 1010.0
20260507061550 51 0.0 1.7 0.02 0.22 0.21 99 1009.8
20260507060547 51 0.0 1.7 0.02 0.22 0.20 99 1009.7
20260507055543 51 0.0 1.7 0.04 0.22 0.20 99 1009.6
20260507054538 51 0.0 1.7 0.05 0.22 0.20 99 1009.4
20260507053535 51 0.0 1.7 0.07 0.22 0.20 99 1009.3
20260507052531 51 68 0.0 1.7 0.06 0.21 0.19 99 1009.3
20260507051528 51 0.0 1.7 0.07 0.21 0.19 99 1009.2
20260507050523 51 0.0 1.7 0.06 0.20 0.18 99 1009.1
20260507045520 51 0.0 1.7 0.05 0.19 0.17 98 1009.0
20260507043612 50 0.0 1.7 0.01 0.15 0.13 98 1008.8
20260507042609 50 0.0 1.7 0.01 0.15 0.13 98 1008.7
20260507041606 51 90 0.0 1.7 0.00 0.14 0.12 98 1008.6
20260507040602 50 68 0.0 1.7 0.00 0.14 0.12 98 1008.5
20260507035559 50 79 0.0 1.7 0.00 0.14 0.12 98 1008.5
20260507034555 50 75 0.9 1.7 0.00 0.14 0.12 98 1008.4
20260507033551 50 90 0.0 1.7 0.00 0.14 0.12 98 1008.3
20260507032547 50 68 0.0 1.7 0.01 0.14 0.12 98 1008.2
20260507031544 51 101 0.0 3.5 0.01 0.14 0.12 98 1008.2
20260507030540 51 0.0 1.7 0.02 0.14 0.12 98 1008.1
20260507025537 51 0.0 1.7 0.04 0.14 0.12 98 1008.1
20260507024533 52 90 0.0 1.7 0.04 0.14 0.12 98 1008.1
20260507023529 51 0.0 0.0 0.04 0.14 0.12 98 1008.0
20260507022525 51 0.0 1.7 0.02 0.13 0.11 97 1008.1
20260507021522 52 84 0.0 1.7 0.04 0.13 0.11 97 1008.0
20260507020518 52 79 0.0 1.7 0.02 0.12 0.09 97 1008.0
20260507015615 52 0.0 1.7 0.01 0.11 0.08 97 1007.9
20260507014612 52 90 0.0 1.7 0.01 0.11 0.08 97 1007.8
20260507013607 52 68 0.0 1.7 0.01 0.11 0.08 97 1007.9
20260507012618 52 90 0.0 1.7 0.01 0.11 0.08 97 1007.8
20260507011600 53 90 0.0 1.7 0.01 0.09 0.07 97 1007.7
20260507010557 53 45 0.0 1.7 0.01 0.09 0.07 97 1007.7
20260507005554 53 45 0.0 1.7 0.02 0.09 0.07 97 1007.8
20260507004550 54 0.0 0.0 0.05 0.09 0.07 97 1007.7
20260507003546 54 0.0 0.0 0.06 0.09 0.07 97 1007.8
20260507002543 54 0.0 1.7 0.06 0.09 0.07 96 1007.7
20260507001539 54 0.0 1.7 0.05 0.08 0.06 96 1007.6
20260507000536 54 0.0 0.0 0.05 0.08 0.06 96 1007.7
20260506235532 54 0.0 1.7 0.04 0.07 0.05 96 1007.7
20260506234528 54 0.0 0.0 0.01 0.05 0.02 96 1007.6
20260506233525 54 0.0 0.0 0.00 0.04 0.01 96 1007.5
20260506232521 54 0.0 0.0 0.01 0.04 0.01 96 1007.5
20260506231517 54 0.0 0.0 0.01 0.04 0.01 96 1007.6
20260506230613 54 0.0 1.7 0.01 0.04 0.01 96 1007.5
20260506225610 54 0.0 0.0 0.01 0.04 0.01 96 1007.5
20260506224606 55 68 0.0 1.7 0.01 0.04 0.01 95 1007.4
20260506223603 55 0.0 1.7 0.01 0.04 0.01 95 1007.3
20260506222600 55 0.0 1.7 0.00 0.02 0.00 95 1007.2
20260506221556 55 113 0.0 3.5 0.00 0.02 0.00 95 1007.3
20260506220552 55 90 0.0 3.5 0.00 0.02 0.00 94 1007.2
20260506215549 55 113 0.0 1.7 0.00 0.02 0.02 94 1007.3
20260506214545 55 0.0 1.7 0.00 0.02 0.02 93 1007.2
20260506213541 55 113 0.0 1.7 0.00 0.02 0.02 93 1007.1
20260506212538 55 0.0 1.7 0.01 0.02 0.02 92 1007.1
20260506211535 55 90 0.0 1.7 0.01 0.02 0.02 91 1007.0
20260506210531 55 0.0 0.0 0.01 0.02 0.02 92 1006.9
20260506205528 55 0.0 1.7 0.01 0.02 0.02 91 1006.8
20260506204524 56 0.0 0.0 0.01 0.02 0.02 90 1006.8
20260506203521 57 0.0 0.0 0.01 0.02 0.02 88 1006.7
20260506202517 58 0.0 0.0 0.00 0.01 0.01 82 1006.7
20260506201613 58 0.0 1.7 0.00 0.02 0.01 81 1006.6
20260506200609 58 90 0.0 1.7 0.00 0.02 0.01 80 1006.6
20260506195606 58 90 0.0 1.7 0.00 0.04 0.01 80 1006.5
20260506194603 58 0.0 1.7 0.00 0.04 0.01 79 1006.5
20260506193559 59 0.0 1.7 0.00 0.04 0.01 78 1006.3
20260506192556 59 90 0.0 1.7 0.00 0.04 0.01 77 1006.3
20260506191552 59 0.0 0.0 0.00 0.04 0.01 78 1006.1
20260506190549 59 0.0 1.7 0.00 0.04 0.01 78 1006.0
20260506185545 58 0.0 1.7 0.00 0.04 0.01 81 1005.8
20260506184541 58 0.0 1.7 0.00 0.04 0.01 83 1005.6
20260506183538 58 0.0 0.0 0.00 0.05 0.01 82 1005.4
20260506182534 59 0.0 0.0 0.00 0.07 0.01 81 1005.3
20260506181531 59 0.0 0.0 0.00 0.12 0.01 82 1005.3
20260506180527 59 0.0 0.0 0.00 0.14 0.01 82 1005.3
20260506175523 61 0.0 0.0 0.00 0.14 0.01 78 1005.2
20260506174519 62 0.0 0.0 0.00 0.15 0.01 73 1005.1
20260506172612 63 0.0 0.0 0.00 0.27 0.01 71 1004.8
20260506171609 64 0.0 0.0 0.00 0.44 0.01 68 1004.7
20260506170605 65 0.0 0.0 0.00 0.51 0.01 65 1004.7
20260506165602 65 0.0 0.0 0.00 0.63 0.01 64 1004.6
20260506164558 66 0.0 0.0 0.00 0.66 0.01 65 1004.7
20260506163554 66 0.0 1.7 0.00 0.66 0.01 64 1004.7
20260506162551 66 0.0 1.7 0.00 0.66 0.01 65 1004.8
20260506161547 66 0.0 0.0 0.00 0.66 0.01 64 1004.9
20260506160544 66 0.0 1.7 0.00 0.66 0.01 61 1004.9
20260506155540 66 0.0 1.7 0.00 0.66 0.01 62 1005.0
20260506154537 67 0.0 1.7 0.00 0.66 0.01 60 1005.1
20260506153533 67 0.0 0.0 0.00 0.66 0.01 60 1005.0
20260506152530 67 0.0 0.0 0.00 0.66 0.01 58 1004.9
20260506151527 67 0.0 1.7 0.00 0.66 0.01 59 1004.9
20260506150523 68 113 0.0 1.7 0.00 0.66 0.01 56 1004.9
20260506145519 67 113 0.0 1.7 0.00 0.66 0.01 59 1005.0
20260506144515 67 0.0 0.0 0.00 0.66 0.01 58 1004.9
20260506143611 68 113 0.0 1.7 0.00 0.66 0.01 58 1005.1
20260506142608 68 113 0.0 1.7 0.00 0.66 0.01 57 1005.1
20260506141604 68 113 0.0 1.7 0.00 0.66 0.01 59 1005.1
20260506140601 68 113 0.9 3.5 0.00 0.66 0.01 54 1005.2
20260506135557 69 113 0.0 1.7 0.00 0.66 0.01 55 1005.2
20260506134553 69 113 0.0 1.7 0.00 0.66 0.01 54 1005.1
20260506133550 70 0.0 1.7 0.00 0.66 0.01 56 1005.2
20260506132546 70 0.0 1.7 0.00 0.66 0.01 55 1005.3
20260506131543 69 0.0 1.7 0.00 0.66 0.01 54 1005.3
20260506130539 69 113 0.0 1.7 0.00 0.66 0.01 55 1005.4
20260506125536 69 113 0.0 1.7 0.00 0.66 0.01 55 1005.5
20260506124532 70 158 0.0 1.7 0.00 0.66 0.01 54 1005.5